This is the latest recevied weather packets stored in our database for station/object N5ZP. If no packets are shown the sender has not sent any weather packets the latest 10 day(s).
| Time | Temp. | Humidity | Pressure | Rain* | Wind** | Luminosity | Snow |
|---|---|---|---|---|---|---|---|
| 1777994528 | 25° C | 75% | 1001.7 hPa | 0 mm | - | 265 W/m² | - |
| 1777994223 | 24.44° C | 75% | 1001.5 hPa | 0 mm | - | 241 W/m² | - |
| 1777993921 | 24.44° C | 75% | 1001.5 hPa | 0 mm | - | 204 W/m² | - |
| 1777993617 | 24.44° C | 75% | 1001.8 hPa | 0 mm | - | 185 W/m² | - |
| 1777993314 | 24.44° C | 75% | 1001.6 hPa | 0 mm | - | 181 W/m² | - |
| 1777993009 | 24.44° C | 75% | 1001.6 hPa | 0 mm | - | 187 W/m² | - |
| 1777992709 | 24.44° C | 75% | 1001.6 hPa | 0 mm | - | 235 W/m² | - |
| 1777992406 | 24.44° C | 75% | 1001.5 hPa | 0 mm | - | 278 W/m² | - |
| 1777992103 | 23.89° C | 76% | 1001.4 hPa | 0 mm | - | 269 W/m² | - |
| 1777991801 | 23.89° C | 76% | 1001.6 hPa | 0 mm | - | 226 W/m² | - |
| 1777991498 | 23.89° C | 77% | 1001.7 hPa | 0 mm | - | 208 W/m² | - |
| 1777991195 | 23.89° C | 76% | 1001.6 hPa | 0 mm | - | 198 W/m² | - |
| 1777990892 | 23.89° C | 76% | 1001.5 hPa | 0 mm | - | 222 W/m² | - |
| 1777990590 | 23.89° C | 76% | 1001.4 hPa | 0 mm | - | 312 W/m² | - |
| 1777989983 | 23.33° C | 77% | 1001.4 hPa | 0 mm | - | 241 W/m² | - |
| 1777989680 | 23.33° C | 77% | 1001.6 hPa | 0 mm | - | 174 W/m² | - |
| 1777989375 | 23.33° C | 77% | 1001.5 hPa | 0 mm | - | 214 W/m² | - |
| 1777989073 | 23.89° C | 76% | 1001.7 hPa | 0 mm | - | 199 W/m² | - |
| 1777988768 | 23.89° C | 77% | 1001.8 hPa | 0 mm | - | 191 W/m² | - |
| 1777988466 | 23.33° C | 77% | 1001.2 hPa | 0 mm | - | 208 W/m² | - |
| 1777988163 | 22.78° C | 78% | 1001.2 hPa | 0 mm | - | 258 W/m² | - |
| 1777987858 | 22.22° C | 81% | 1001.2 hPa | 0 mm | - | 153 W/m² | - |
| 1777987555 | 22.22° C | 81% | 1001 hPa | 0 mm | - | 110 W/m² | - |
| 1777987253 | 22.22° C | 81% | 1000.9 hPa | 0 mm | - | 88 W/m² | - |
| 1777986949 | 22.22° C | 81% | 1001.2 hPa | 0 mm | - | 87 W/m² | - |
* Rain latest hour (hover to see other rain measurements)
** Current wind speed in m/s (hover to see current wind gust speed)